KO6TH-15 Weather Reports


time (UTC)temp
C
wind
direction
speed
KPH
gust
KPH
rain 1hr
cm
rain 24hr
cm
rain mn
cm
humidity
%
barometer
mb
20260906225116 28 0 4.8 0.0 0.00 0.00 0.00 35
20260906224116 30 0 6.4 0.0 0.00 0.00 0.00 35
20260906223116 30 0 6.4 0.0 0.00 0.00 0.00 35
20260906222046 28 0 6.4 0.0 0.00 0.00 0.00 36
20260906221046 29 0 9.7 0.0 0.00 0.00 0.00 36
20260906220016 28 0 14.5 0.0 0.00 0.00 0.00 37
20260906214946 29 0 6.4 0.0 0.00 0.00 0.00 37
20260906213916 28 0 3.2 0.0 0.00 0.00 0.00 38
20260906212846 28 0 6.4 0.0 0.00 0.00 0.00 37
20260906211816 29 0 6.4 0.0 0.00 0.00 0.00 38
20260906210816 28 0 11.3 0.0 0.00 0.00 0.00 37
20260906205746 29 0 4.8 0.0 0.00 0.00 0.00 36
20260906204746 29 0 4.8 0.0 0.00 0.00 0.00 37
20260906203716 28 0 12.9 0.0 0.00 0.00 0.00 36
20260906202646 28 0 9.7 0.0 0.00 0.00 0.00 36
20260906201646 28 0 3.2 0.0 0.00 0.00 0.00 36
20260906200646 27 0 3.2 0.0 0.00 0.00 0.00 36
20260906195616 27 0 6.4 0.0 0.00 0.00 0.00 37
20260906194616 27 0 6.4 0.0 0.00 0.00 0.00 36
20260906193546 27 0 8.0 0.0 0.00 0.00 0.00 36
20260906192515 27 0 9.7 0.0 0.00 0.00 0.00 36
20260906191446 26 0 6.4 0.0 0.00 0.00 0.00 37
20260906190446 26 0 9.7 0.0 0.00 0.00 0.00 37
20260906185416 26 0 1.6 0.0 0.00 0.00 0.00 38
20260906184416 26 0 9.7 0.0 0.00 0.00 0.00 37
20260906183416 26 0 6.4 0.0 0.00 0.00 0.00 37
20260906182416 26 0 11.3 0.0 0.00 0.00 0.00 35
20260906181346 27 0 4.8 0.0 0.00 0.00 0.00 35
20260906180346 26 0 3.2 0.0 0.00 0.00 0.00 36
20260906175346 26 0 3.2 0.0 0.00 0.00 0.00 37
20260906174316 26 0 4.8 0.0 0.00 0.00 0.00 39
20260906173316 23 0 1.6 0.0 0.00 0.00 0.00 40
20260906172246 23 0 3.2 0.0 0.00 0.00 0.00 41
20260906171246 22 0 6.4 0.0 0.00 0.00 0.00 44
20260906170216 22 0 12.9 0.0 0.00 0.00 0.00 44
20260906165146 21 0 1.6 0.0 0.00 0.00 0.00 47
20260906164146 20 0 3.2 0.0 0.00 0.00 0.00 50
20260906163116 20 0 4.8 0.0 0.00 0.00 0.00 56
20260906162116 19 0 1.6 0.0 0.00 0.00 0.00 59
20260906161046 18 0 6.4 0.0 0.00 0.00 0.00 60
20260906160016 18 0 6.4 0.0 0.00 0.00 0.00 62
20260906155016 17 0 8.0 0.0 0.00 0.00 0.00 66
20260906153946 16 0 3.2 0.0 0.00 0.00 0.00 71
20260906152915 16 0 4.8 0.0 0.00 0.00 0.00 75
20260906151846 16 0 3.2 0.0 0.00 0.00 0.00 77
20260906150846 15 0 1.6 0.0 0.00 0.00 0.00 80
20260906145846 13 0 0.0 0.0 0.00 0.00 0.00 95
20260906144816 12 0 0.0 0.0 0.00 0.00 0.00 99
20260906143745 10 0 0.0 0.0 0.00 0.00 0.00 99
20260906142746 9 0 0.0 0.0 0.00 0.00 0.00 99
20260906141716 9 0 0.0 0.0 0.00 0.00 0.00 99
20260906140716 9 0 0.0 0.0 0.00 0.00 0.00 99
20260906135716 9 0 0.0 0.0 0.00 0.00 0.00 99
20260906134716 9 0 0.0 0.0 0.00 0.00 0.00 99
20260906133715 9 0 0.0 0.0 0.00 0.00 0.00 99
20260906132646 9 0 0.0 0.0 0.00 0.00 0.00 99
20260906131616 9 0 0.0 0.0 0.00 0.00 0.00 99
20260906130616 9 0 0.0 0.0 0.00 0.00 0.00 98
20260906125615 9 0 0.0 0.0 0.00 0.00 0.00 98
20260906124546 10 0 0.0 0.0 0.00 0.00 0.00 98
20260906123515 10 0 0.0 0.0 0.00 0.00 0.00 97
20260906122446 10 0 0.0 0.0 0.00 0.00 0.00 98
20260906121416 10 0 0.0 0.0 0.00 0.00 0.00 98
20260906120416 10 0 0.0 0.0 0.00 0.00 0.00 97
20260906115345 10 0 0.0 0.0 0.00 0.00 0.00 97
20260906114346 10 0 0.0 0.0 0.00 0.00 0.00 96
20260906113316 10 0 0.0 0.0 0.00 0.00 0.00 95
20260906112316 11 0 0.0 0.0 0.00 0.00 0.00 95
20260906111316 11 0 0.0 0.0 0.00 0.00 0.00 95
20260906110316 11 0 0.0 0.0 0.00 0.00 0.00 96
20260906105315 11 0 0.0 0.0 0.00 0.00 0.00 95
20260906104316 11 0 0.0 0.0 0.00 0.00 0.00 94
20260906103246 11 0 0.0 0.0 0.00 0.00 0.00 95
20260906102216 11 0 0.0 0.0 0.00 0.00 0.00 95
20260906101216 11 0 0.0 0.0 0.00 0.00 0.00 94
20260906100145 11 0 0.0 0.0 0.00 0.00 0.00 94
20260906095116 11 0 0.0 0.0 0.00 0.00 0.00 95
20260906094046 11 0 0.0 0.0 0.00 0.00 0.00 95
20260906093046 11 0 0.0 0.0 0.00 0.00 0.00 95
20260906092015 11 0 0.0 0.0 0.00 0.00 0.00 96
20260906090946 11 0 0.0 0.0 0.00 0.00 0.00 96
20260906085916 11 0 0.0 0.0 0.00 0.00 0.00 96
20260906084916 11 0 0.0 0.0 0.00 0.00 0.00 96
20260906083846 11 0 0.0 0.0 0.00 0.00 0.00 95
20260906082816 11 0 0.0 0.0 0.00 0.00 0.00 95
20260906081816 11 0 0.0 0.0 0.00 0.00 0.00 94
20260906080746 11 0 0.0 0.0 0.00 0.00 0.00 95
20260906075716 11 0 0.0 0.0 0.00 0.00 0.00 93
20260906074645 11 0 0.0 0.0 0.00 0.00 0.00 93
20260906073646 11 0 0.0 0.0 0.00 0.00 0.00 92
20260906072616 11 0 0.0 0.0 0.00 0.00 0.00 92
20260906071616 11 0 0.0 0.0 0.00 0.00 0.00 92
20260906070545 12 0 0.0 0.0 0.00 0.00 0.00 91
20260906065545 12 0 0.0 0.0 0.00 0.00 0.00 89
20260906064546 12 0 0.0 0.0 0.00 0.00 0.00 89
20260906063546 12 0 0.0 0.0 0.00 0.00 0.00 88
20260906062516 12 0 0.0 0.0 0.00 0.00 0.00 86
20260906061445 12 0 0.0 0.0 0.00 0.00 0.00 86
20260906060416 13 0 0.0 0.0 0.00 0.00 0.00 86
20260906055416 13 0 0.0 0.0 0.00 0.00 0.00 85
20260906054416 13 0 0.0 0.0 0.00 0.00 0.00 85
20260906053416 13 0 0.0 0.0 0.00 0.00 0.00 84
20260906052346 13 0 0.0 0.0 0.00 0.00 0.00 83
20260906051316 13 0 1.6 0.0 0.00 0.00 0.00 83
20260906050246 14 0 0.0 0.0 0.00 0.00 0.00 80
20260906045216 15 0 0.0 0.0 0.00 0.00 0.00 78
20260906044216 15 0 0.0 0.0 0.00 0.00 0.00 75
20260906043146 15 0 0.0 0.0 0.00 0.00 0.00 74
20260906042146 16 0 0.0 0.0 0.00 0.00 0.00 73
20260906041116 16 0 0.0 0.0 0.00 0.00 0.00 71
20260906040116 16 0 0.0 0.0 0.00 0.00 0.00 70
20260906035046 17 0 0.0 0.0 0.00 0.00 0.00 69
20260906034045 17 0 0.0 0.0 0.00 0.00 0.00 66
20260906033016 18 0 0.0 0.0 0.00 0.00 0.00 65
20260906031946 18 0 0.0 0.0 0.00 0.00 0.00 63
20260906030916 19 0 0.0 0.0 0.00 0.00 0.00 61
20260906025916 20 0 0.0 0.0 0.00 0.00 0.00 59
20260906024845 20 0 0.0 0.0 0.00 0.00 0.00 57
20260906023846 21 0 0.0 0.0 0.00 0.00 0.00 55
20260906022845 22 0 0.0 0.0 0.00 0.00 0.00 53
20260906021816 23 0 0.0 0.0 0.00 0.00 0.00 50
20260906020746 23 0 1.6 0.0 0.00 0.00 0.00 46
20260906015745 23 0 3.2 0.0 0.00 0.00 0.00 44
20260906014746 24 0 0.0 0.0 0.00 0.00 0.00 44
20260906013715 25 0 1.6 0.0 0.00 0.00 0.00 43
20260906012715 25 0 3.2 0.0 0.00 0.00 0.00 43
20260906011646 25 0 1.6 0.0 0.00 0.00 0.00 43
20260906010616 25 0 1.6 0.0 0.00 0.00 0.00 41
20260906005616 25 0 3.2 0.0 0.00 0.00 0.00 41
20260906004615 26 0 6.4 0.0 0.00 0.00 0.00 40
20260906003546 27 0 1.6 0.0 0.00 0.00 0.00 38
20260906002545 27 0 1.6 0.0 0.00 0.00 0.00 39
20260906001546 27 0 3.2 0.0 0.00 0.00 0.00 39
20260906000516 27 0 3.2 0.0 0.00 0.00 0.00 39
20260905235516 26 0 4.8 0.0 0.00 0.00 0.00 39
20260905234515 27 0 3.2 0.0 0.00 0.00 0.00 38
20260905233515 28 0 8.0 0.0 0.00 0.00 0.00 37
20260905232515 29 0 6.4 0.0 0.00 0.00 0.00 35
20260905231516 30 0 8.0 0.0 0.00 0.00 0.00 34
20260905230446 29 0 4.8 0.0 0.00 0.00 0.00 35